QPF
0.05 0.03 0.03 0.06 0.07 0.07 0.06 0.04 0.04 0.05 0.07 0.08 0.08 0.07 0.08 0.08 0.10 0.10 0.09 0.08 0.06 0.05 0.07 0.09 0.11 0.09 0.08 0.07 0.04 0.04 0.04 0.03 0.03 0.02 0.02 0.02 0.02 0.02 0.02 0.03 0.05 0.08 0.06
0.04 0.02 0.03 0.06 0.09 0.08 0.07 0.05 0.04 0.05 0.06 0.07 0.06 0.06 0.06 0.07 0.08 0.08 0.09 0.09 0.09 0.08 0.10 0.20 0.20 0.12 0.07 0.07 0.06 0.06 0.06 0.05 0.03 0.03 0.04 0.04 0.03 0.03 0.02 0.03 0.06 0.08 0.05
0.03 0.02 0.02 0.04 0.07 0.06 0.07 0.07 0.05 0.05 0.08 0.08 0.07 0.06 0.06 0.06 0.06 0.06 0.05 0.07 0.09 0.08 0.10 0.16 0.16 0.11 0.09 0.09 0.06 0.06 0.05 0.05 0.04 0.05 0.06 0.09 0.08 0.05 0.04 0.04 0.05 0.04 0.05
0.03 0.04 0.02 0.04 0.05 0.04 0.05 0.06 0.07 0.07 0.09 0.07 0.06 0.06 0.05 0.05 0.07 0.08 0.08 0.08 0.08 0.08 0.07 0.06 0.08 0.09 0.08 0.09 0.06 0.05 0.04 0.05 0.05 0.05 0.06 0.10 0.11 0.08 0.07 0.05 0.04 0.04 0.04
0.04 0.05 0.02 0.05 0.07 0.06 0.07 0.05 0.07 0.07 0.06 0.05 0.05 0.05 0.05 0.06 0.06 0.06 0.07 0.08 0.06 0.06 0.07 0.06 0.05 0.04 0.04 0.04 0.03 0.04 0.04 0.04 0.05 0.05 0.07 0.08 0.09 0.09 0.08 0.06 0.05 0.05 0.06
0.04 0.04 0.03 0.05 0.06 0.06 0.05 0.04 0.04 0.05 0.05 0.04 0.02 0.03 0.04 0.04 0.04 0.05 0.07 0.08 0.08 0.07 0.07 0.06 0.05 0.04 0.03 0.04 0.04 0.04 0.04 0.05 0.05 0.07 0.06 0.07 0.08 0.07 0.04 0.04 0.04 0.06 0.06
0.03 0.03 0.02 0.04 0.04 0.04 0.03 0.04 0.04 0.04 0.03 0.03 0.02 0.03 0.04 0.05 0.05 0.05 0.05 0.06 0.07 0.07 0.07 0.08 0.06 0.05 0.04 0.06 0.10 0.14 0.15 0.11 0.08 0.08 0.07 0.07 0.07 0.05 0.05 0.05 0.04 0.05 0.06
0.03 0.03 0.02 0.04 0.05 0.04 0.03 0.03 0.03 0.02 0.02 0.02 0.02 0.02 0.04 0.06 0.09 0.07 0.05 0.03 0.04 0.05 0.07 0.08 0.06 0.05 0.05 0.05 0.08 0.10 0.08 0.06 0.05 0.06 0.06 0.08 0.09 0.07 0.06 0.05 0.05 0.06 0.07
0.03 0.03 0.03 0.03 0.04 0.05 0.04 0.04 0.03 0.02 0.01 0.01 0.01 0.02 0.02 0.03 0.04 0.03 0.03 0.03 0.04 0.04 0.05 0.05 0.05 0.05 0.05 0.05 0.04 0.05 0.04 0.03 0.04 0.06 0.07 0.11 0.12 0.11 0.08 0.05 0.05 0.06 0.05
0.04 0.03 0.03 0.02 0.03 0.03 0.03 0.03 0.03 0.03 0.02 0.02 0.02 0.03 0.02 0.02 0.03 0.03 0.03 0.05 0.05 0.05 0.03 0.03 0.04 0.05 0.05 0.04 0.03 0.04 0.04 0.03 0.04 0.05 0.09 0.09 0.10 0.11 0.09 0.06 0.05 0.05 0.05
0.03 0.02 0.02 0.02 0.03 0.02 0.03 0.03 0.04 0.04 0.04 0.05 0.05 0.04 0.05 0.05 0.04 0.03 0.03 0.03 0.02 0.03 0.03 0.04 0.03 0.04 0.04 0.03 0.03 0.03 0.03 0.04 0.04 0.05 0.06 0.09 0.11 0.11 0.10 0.07 0.06 0.06 0.05
0.05 0.03 0.01 0.01 0.02 0.02 0.02 0.02 0.03 0.03 0.04 0.05 0.06 0.06 0.08 0.08 0.04 0.03 0.02 0.02 0.01 0.01 0.02 0.04 0.04 0.03 0.02 0.02 0.02 0.03 0.03 0.04 0.03 0.04 0.07 0.11 0.10 0.10 0.10 0.09 0.08 0.07 0.06
0.05 0.02 0.00 0.01 0.01 0.01 0.03 0.02 0.01 0.02 0.02 0.03 0.04 0.07 0.08 0.09 0.07 0.05 0.04 0.03 0.02 0.02 0.01 0.02 0.02 0.02 0.02 0.02 0.02 0.02 0.04 0.05 0.06 0.06 0.08 0.09 0.09 0.10 0.11 0.11 0.09 0.08 0.07
0.03 0.03 0.02 0.01 0.01 0.01 0.01 0.01 0.00 0.01 0.03 0.04 0.04 0.05 0.07 0.08 0.07 0.05 0.03 0.04 0.04 0.03 0.02 0.02 0.02 0.02 0.02 0.03 0.04 0.05 0.06 0.08 0.08 0.09 0.09 0.09 0.11 0.13 0.12 0.10 0.09 0.08 0.07
0.02 0.04 0.05 0.03 0.02 0.02 0.01 0.01 0.00 0.00 0.01 0.03 0.05 0.05 0.05 0.05 0.05 0.05 0.04 0.05 0.04 0.03 0.02 0.02 0.04 0.05 0.06 0.07 0.06 0.06 0.06 0.07 0.08 0.07 0.07 0.07 0.08 0.09 0.09 0.08 0.08 0.08 0.09
0.02 0.04 0.07 0.07 0.05 0.02 0.02 0.01 0.00 0.00 0.01 0.01 0.03 0.03 0.04 0.04 0.04 0.04 0.06 0.06 0.06 0.03 0.02 0.02 0.03 0.02 0.03 0.03 0.03 0.03 0.04 0.05 0.05 0.05 0.05 0.05 0.05 0.06 0.06 0.06 0.06 0.07 0.07
0.03 0.03 0.04 0.06 0.05 0.03 0.02 0.01 0.00 0.00 0.01 0.01 0.01 0.01 0.03 0.04 0.04 0.04 0.03 0.05 0.08 0.08 0.05 0.03 0.03 0.02 0.03 0.03 0.03 0.03 0.04 0.06 0.08 0.06 0.04 0.04 0.04 0.05 0.05 0.06 0.07 0.08 0.08
0.03 0.03 0.03 0.06 0.07 0.06 0.03 0.02 0.01 0.01 0.01 0.00 0.01 0.01 0.02 0.03 0.03 0.03 0.02 0.03 0.06 0.08 0.07 0.06 0.04 0.03 0.05 0.05 0.04 0.04 0.05 0.09 0.12 0.09 0.04 0.04 0.05 0.06 0.07 0.07 0.07 0.08 0.08
0.03 0.03 0.03 0.04 0.04 0.04 0.04 0.04 0.03 0.02 0.01 0.01 0.00 0.00 0.01 0.03 0.03 0.03 0.02 0.03 0.04 0.06 0.05 0.03 0.03 0.04 0.05 0.06 0.06 0.05 0.06 0.11 0.17 0.14 0.07 0.04 0.04 0.05 0.06 0.07 0.07 0.08 0.08
0.01 0.02 0.02 0.03 0.03 0.03 0.02 0.02 0.03 0.02 0.02 0.02 0.01 0.00 0.01 0.02 0.04 0.04 0.03 0.02 0.03 0.04 0.05 0.03 0.02 0.02 0.04 0.07 0.07 0.05 0.07 0.11 0.16 0.17 0.12 0.08 0.07 0.06 0.07 0.07 0.07 0.07 0.08
0.02 0.02 0.03 0.03 0.04 0.03 0.02 0.02 0.02 0.02 0.02 0.01 0.01 0.01 0.01 0.01 0.02 0.03 0.02 0.01 0.02 0.03 0.03 0.04 0.03 0.03 0.04 0.07 0.09 0.06 0.05 0.06 0.10 0.14 0.14 0.12 0.11 0.09 0.07 0.06 0.05 0.06 0.07
0.03 0.04 0.04 0.04 0.04 0.04 0.02 0.01 0.01 0.01 0.01 0.01 0.01 0.02 0.02 0.02 0.02 0.03 0.03 0.02 0.02 0.03 0.03 0.05 0.05 0.04 0.04 0.06 0.09 0.08 0.06 0.05 0.07 0.08 0.09 0.09 0.09 0.07 0.05 0.04 0.03 0.03 0.03
0.03 0.02 0.02 0.02 0.02 0.02 0.01 0.01 0.01 0.01 0.01 0.01 0.01 0.02 0.03 0.03 0.02 0.04 0.04 0.03 0.02 0.03 0.03 0.05 0.06 0.05 0.04 0.06 0.08 0.09 0.08 0.07 0.08 0.07 0.06 0.06 0.05 0.04 0.04 0.03 0.02 0.02 0.02
0.03 0.01 0.02 0.01 0.01 0.01 0.01 0.01 0.01 0.01 0.01 0.01 0.01 0.01 0.01 0.02 0.02 0.03 0.04 0.04 0.03 0.03 0.03 0.03 0.05 0.06 0.05 0.05 0.08 0.09 0.08 0.08 0.08 0.07 0.06 0.05 0.03 0.03 0.03 0.03 0.02 0.01 0.01
0.01 0.00 0.01 0.02 0.02 0.01 0.00 0.00 0.00 0.01 0.01 0.01 0.01 0.01 0.00 0.00 0.01 0.02 0.03 0.04 0.03 0.03 0.02 0.02 0.02 0.04 0.05 0.06 0.07 0.08 0.09 0.08 0.07 0.06 0.06 0.05 0.04 0.04 0.03 0.03 0.02 0.01 0.02
0.01 0.01 0.01 0.02 0.02 0.01 0.00 0.00 0.00 0.00 0.00 0.00 0.00 0.00 0.01 0.01 0.01 0.02 0.03 0.03 0.03 0.02 0.01 0.01 0.02 0.02 0.03 0.04 0.05 0.07 0.08 0.08 0.08 0.07 0.05 0.05 0.04 0.04 0.03 0.03 0.02 0.02 0.02
MSLP
1011.17 1010.93 1010.80 1010.85 1011.06 1011.38 1011.76 1012.11 1012.37 1012.52 1012.56 1012.53 1012.47 1012.44 1012.47 1012.54 1012.66 1012.78 1012.88 1012.92 1012.91 1012.85 1012.75 1012.64 1012.52 1012.41 1012.29 1012.16 1012.01 1011.84 1011.65 1011.46 1011.28 1011.12 1011.00 1010.89 1010.79 1010.68 1010.53 1010.35 1010.13 1009.89 1009.67
1011.15 1011.01 1010.98 1011.11 1011.38 1011.74 1012.12 1012.45 1012.69 1012.82 1012.85 1012.82 1012.79 1012.79 1012.85 1012.97 1013.12 1013.26 1013.36 1013.41 1013.40 1013.34 1013.24 1013.12 1013.00 1012.86 1012.71 1012.53 1012.33 1012.09 1011.86 1011.64 1011.45 1011.32 1011.24 1011.18 1011.13 1011.04 1010.90 1010.69 1010.43 1010.13 1009.84
1011.11 1011.06 1011.13 1011.34 1011.67 1012.07 1012.46 1012.79 1013.01 1013.12 1013.15 1013.14 1013.14 1013.19 1013.28 1013.43 1013.59 1013.74 1013.84 1013.88 1013.86 1013.80 1013.70 1013.59 1013.46 1013.32 1013.14 1012.93 1012.68 1012.40 1012.13 1011.89 1011.71 1011.60 1011.55 1011.54 1011.52 1011.46 1011.32 1011.09 1010.79 1010.44 1010.10
1011.06 1011.11 1011.27 1011.56 1011.95 1012.37 1012.78 1013.11 1013.33 1013.45 1013.49 1013.51 1013.54 1013.62 1013.75 1013.92 1014.09 1014.23 1014.32 1014.34 1014.31 1014.23 1014.14 1014.03 1013.91 1013.77 1013.59 1013.36 1013.08 1012.78 1012.49 1012.24 1012.07 1011.97 1011.95 1011.97 1011.97 1011.92 1011.77 1011.53 1011.19 1010.81 1010.42
1011.03 1011.16 1011.40 1011.76 1012.21 1012.67 1013.10 1013.44 1013.67 1013.80 1013.86 1013.90 1013.97 1014.09 1014.25 1014.43 1014.61 1014.74 1014.80 1014.80 1014.75 1014.66 1014.56 1014.46 1014.35 1014.22 1014.04 1013.82 1013.55 1013.24 1012.95 1012.70 1012.53 1012.45 1012.44 1012.46 1012.46 1012.40 1012.24 1011.97 1011.61 1011.20 1010.79
1011.05 1011.23 1011.54 1011.97 1012.47 1012.98 1013.44 1013.79 1014.03 1014.17 1014.25 1014.32 1014.42 1014.57 1014.76 1014.96 1015.13 1015.25 1015.30 1015.27 1015.19 1015.09 1014.98 1014.87 1014.77 1014.65 1014.49 1014.29 1014.03 1013.75 1013.47 1013.24 1013.08 1013.00 1012.98 1012.98 1012.96 1012.88 1012.69 1012.40 1012.03 1011.61 1011.19
1011.12 1011.35 1011.72 1012.20 1012.76 1013.31 1013.79 1014.16 1014.40 1014.55 1014.64 1014.73 1014.86 1015.03 1015.25 1015.47 1015.65 1015.77 1015.80 1015.75 1015.65 1015.52 1015.39 1015.28 1015.17 1015.05 1014.91 1014.73 1014.51 1014.26 1014.02 1013.81 1013.66 1013.58 1013.54 1013.52 1013.47 1013.34 1013.12 1012.81 1012.42 1012.01 1011.60
1011.24 1011.49 1011.91 1012.45 1013.05 1013.63 1014.14 1014.52 1014.76 1014.91 1015.01 1015.11 1015.25 1015.45 1015.69 1015.93 1016.13 1016.26 1016.29 1016.23 1016.11 1015.96 1015.80 1015.66 1015.53 1015.41 1015.28 1015.13 1014.95 1014.75 1014.55 1014.38 1014.25 1014.17 1014.12 1014.06 1013.96 1013.80 1013.55 1013.21 1012.82 1012.42 1012.03
1011.37 1011.65 1012.10 1012.68 1013.32 1013.93 1014.45 1014.83 1015.07 1015.21 1015.30 1015.41 1015.56 1015.78 1016.04 1016.31 1016.54 1016.69 1016.74 1016.68 1016.55 1016.38 1016.19 1016.02 1015.87 1015.73 1015.60 1015.47 1015.33 1015.18 1015.04 1014.92 1014.82 1014.76 1014.69 1014.61 1014.48 1014.27 1013.99 1013.64 1013.26 1012.87 1012.51
1011.48 1011.78 1012.26 1012.88 1013.54 1014.16 1014.68 1015.05 1015.28 1015.41 1015.49 1015.59 1015.75 1015.98 1016.28 1016.58 1016.85 1017.04 1017.12 1017.08 1016.96 1016.77 1016.56 1016.35 1016.17 1016.02 1015.89 1015.78 1015.67 1015.58 1015.50 1015.43 1015.38 1015.33 1015.27 1015.18 1015.02 1014.79 1014.49 1014.14 1013.76 1013.39 1013.06
1011.56 1011.88 1012.39 1013.01 1013.67 1014.29 1014.80 1015.15 1015.36 1015.48 1015.55 1015.65 1015.82 1016.07 1016.38 1016.73 1017.04 1017.28 1017.40 1017.40 1017.30 1017.12 1016.90 1016.68 1016.47 1016.30 1016.17 1016.07 1016.00 1015.96 1015.93 1015.93 1015.92 1015.91 1015.87 1015.77 1015.61 1015.37 1015.07 1014.72 1014.35 1014.00 1013.70
1011.63 1011.96 1012.47 1013.08 1013.73 1014.32 1014.80 1015.13 1015.33 1015.43 1015.50 1015.60 1015.78 1016.05 1016.39 1016.76 1017.12 1017.40 1017.58 1017.63 1017.57 1017.42 1017.22 1017.00 1016.79 1016.61 1016.48 1016.40 1016.36 1016.35 1016.38 1016.43 1016.47 1016.50 1016.48 1016.40 1016.24 1016.01 1015.71 1015.37 1015.03 1014.70 1014.41
1011.73 1012.07 1012.55 1013.12 1013.72 1014.27 1014.71 1015.02 1015.20 1015.31 1015.39 1015.51 1015.70 1015.98 1016.33 1016.73 1017.11 1017.44 1017.67 1017.78 1017.77 1017.68 1017.52 1017.33 1017.14 1016.98 1016.86 1016.79 1016.77 1016.80 1016.86 1016.95 1017.03 1017.09 1017.09 1017.03 1016.88 1016.67 1016.39 1016.07 1015.75 1015.44 1015.18
1011.96 1012.26 1012.69 1013.20 1013.72 1014.20 1014.60 1014.88 1015.07 1015.20 1015.30 1015.44 1015.65 1015.93 1016.29 1016.69 1017.08 1017.43 1017.70 1017.86 1017.93 1017.90 1017.81 1017.67 1017.53 1017.40 1017.31 1017.26 1017.26 1017.30 1017.38 1017.49 1017.59 1017.66 1017.68 1017.64 1017.51 1017.31 1017.05 1016.76 1016.46 1016.18 1015.93
1012.38 1012.63 1012.97 1013.38 1013.81 1014.21 1014.55 1014.82 1015.02 1015.18 1015.32 1015.49 1015.71 1016.00 1016.33 1016.71 1017.08 1017.43 1017.71 1017.92 1018.05 1018.11 1018.10 1018.04 1017.97 1017.89 1017.83 1017.80 1017.81 1017.85 1017.94 1018.03 1018.13 1018.21 1018.23 1018.19 1018.07 1017.89 1017.65 1017.38 1017.11 1016.86 1016.63
1013.08 1013.24 1013.46 1013.75 1014.06 1014.37 1014.66 1014.92 1015.14 1015.34 1015.53 1015.74 1015.97 1016.23 1016.53 1016.85 1017.17 1017.48 1017.76 1017.99 1018.18 1018.31 1018.39 1018.43 1018.43 1018.42 1018.40 1018.39 1018.40 1018.44 1018.50 1018.58 1018.66 1018.71 1018.72 1018.68 1018.56 1018.39 1018.17 1017.92 1017.67 1017.44 1017.24
1014.05 1014.10 1014.19 1014.33 1014.52 1014.74 1014.98 1015.23 1015.48 1015.72 1015.96 1016.20 1016.43 1016.67 1016.90 1017.14 1017.38 1017.63 1017.87 1018.10 1018.32 1018.52 1018.68 1018.81 1018.91 1018.96 1018.99 1019.00 1019.01 1019.03 1019.07 1019.11 1019.16 1019.19 1019.18 1019.12 1019.00 1018.83 1018.62 1018.39 1018.16 1017.95 1017.77
1015.25 1015.17 1015.13 1015.13 1015.19 1015.32 1015.51 1015.75 1016.03 1016.32 1016.60 1016.86 1017.08 1017.27 1017.43 1017.57 1017.72 1017.87 1018.05 1018.26 1018.50 1018.74 1018.98 1019.19 1019.35 1019.47 1019.54 1019.58 1019.59 1019.60 1019.61 1019.63 1019.65 1019.65 1019.62 1019.55 1019.43 1019.26 1019.05 1018.83 1018.62 1018.42 1018.26
1016.59 1016.39 1016.21 1016.08 1016.03 1016.08 1016.22 1016.46 1016.76 1017.08 1017.39 1017.66 1017.86 1017.99 1018.07 1018.11 1018.14 1018.20 1018.32 1018.48 1018.71 1018.98 1019.26 1019.53 1019.76 1019.93 1020.04 1020.10 1020.12 1020.13 1020.13 1020.13 1020.14 1020.13 1020.09 1020.01 1019.89 1019.72 1019.52 1019.30 1019.09 1018.91 1018.76
1017.94 1017.64 1017.35 1017.11 1016.97 1016.95 1017.05 1017.27 1017.57 1017.91 1018.23 1018.49 1018.67 1018.75 1018.75 1018.70 1018.63 1018.60 1018.64 1018.76 1018.97 1019.23 1019.54 1019.84 1020.11 1020.31 1020.46 1020.54 1020.58 1020.59 1020.60 1020.62 1020.63 1020.63 1020.60 1020.54 1020.42 1020.26 1020.07 1019.85 1019.64 1019.46 1019.31
1019.19 1018.82 1018.45 1018.14 1017.93 1017.85 1017.91 1018.11 1018.39 1018.73 1019.04 1019.29 1019.43 1019.47 1019.40 1019.28 1019.13 1019.03 1019.00 1019.08 1019.25 1019.50 1019.80 1020.10 1020.38 1020.60 1020.76 1020.87 1020.93 1020.97 1021.01 1021.06 1021.10 1021.14 1021.15 1021.11 1021.02 1020.88 1020.69 1020.48 1020.27 1020.08 1019.93
1020.28 1019.86 1019.45 1019.10 1018.84 1018.72 1018.75 1018.90 1019.16 1019.47 1019.76 1019.98 1020.09 1020.09 1019.98 1019.81 1019.62 1019.47 1019.39 1019.42 1019.55 1019.77 1020.03 1020.32 1020.57 1020.79 1020.95 1021.07 1021.15 1021.23 1021.32 1021.42 1021.52 1021.62 1021.68 1021.69 1021.64 1021.52 1021.35 1021.14 1020.93 1020.74 1020.59
1021.16 1020.74 1020.33 1019.96 1019.69 1019.54 1019.52 1019.64 1019.85 1020.11 1020.36 1020.54 1020.62 1020.59 1020.47 1020.28 1020.07 1019.89 1019.79 1019.78 1019.87 1020.03 1020.24 1020.47 1020.68 1020.86 1021.01 1021.12 1021.23 1021.35 1021.49 1021.65 1021.82 1021.99 1022.11 1022.18 1022.18 1022.10 1021.95 1021.76 1021.56 1021.37 1021.21
1021.86 1021.48 1021.09 1020.75 1020.47 1020.30 1020.26 1020.32 1020.47 1020.67 1020.86 1020.99 1021.05 1021.00 1020.87 1020.68 1020.48 1020.30 1020.18 1020.14 1020.17 1020.27 1020.41 1020.56 1020.71 1020.83 1020.93 1021.04 1021.15 1021.30 1021.48 1021.70 1021.94 1022.18 1022.37 1022.50 1022.55 1022.52 1022.40 1022.24 1022.06 1021.88 1021.74
1022.47 1022.13 1021.80 1021.49 1021.23 1021.05 1020.97 1020.98 1021.07 1021.19 1021.31 1021.40 1021.41 1021.36 1021.23 1021.05 1020.86 1020.69 1020.55 1020.48 1020.46 1020.48 1020.53 1020.59 1020.65 1020.70 1020.75 1020.82 1020.93 1021.08 1021.30 1021.56 1021.86 1022.15 1022.40 1022.59 1022.69 1022.70 1022.64 1022.52 1022.37 1022.22 1022.10
1023.03 1022.76 1022.49 1022.23 1022.00 1021.82 1021.71 1021.66 1021.67 1021.72 1021.77 1021.79 1021.77 1021.70 1021.57 1021.41 1021.23 1021.05 1020.91 1020.79 1020.72 1020.66 1020.62 1020.58 1020.54 1020.51 1020.49 1020.52 1020.59 1020.74 1020.96 1021.25 1021.57 1021.89 1022.19 1022.42 1022.58 1022.64 1022.63 1022.56 1022.46 1022.37 1022.29
Thickness
5769 5771 5770 5771 5772 5772 5773 5773 5774 5775 5775 5776 5776 5777 5777 5777 5777 5777 5776 5776 5776 5776 5776 5775 5774 5774 5774 5774 5774 5774 5773 5773 5773 5773 5772 5772 5771 5771 5771 5771 5771 5771 5771
5771 5770 5769 5769 5769 5770 5770 5771 5771 5772 5772 5773 5774 5774 5774 5774 5774 5774 5774 5774 5774 5773 5773 5773 5772 5772 5772 5771 5771 5771 5771 5771 5771 5771 5770 5769 5769 5769 5768 5768 5768 5768 5768
5771 5768 5767 5766 5767 5767 5767 5768 5768 5769 5769 5770 5770 5770 5771 5771 5771 5771 5771 5771 5771 5771 5770 5770 5770 5769 5769 5769 5768 5768 5768 5768 5768 5768 5768 5767 5766 5765 5765 5765 5765 5765 5765
5770 5767 5764 5764 5764 5764 5764 5765 5765 5765 5765 5766 5766 5767 5767 5767 5768 5768 5768 5768 5768 5768 5767 5767 5766 5766 5766 5766 5766 5766 5766 5766 5765 5765 5764 5764 5763 5762 5762 5762 5762 5762 5762
5767 5764 5761 5761 5760 5760 5761 5761 5761 5761 5762 5762 5763 5763 5764 5764 5764 5764 5764 5764 5764 5764 5764 5763 5763 5762 5762 5762 5762 5763 5763 5763 5762 5761 5761 5760 5760 5759 5758 5758 5758 5758 5758
5763 5761 5758 5757 5757 5757 5757 5757 5757 5757 5758 5758 5759 5759 5759 5760 5760 5760 5760 5760 5760 5760 5760 5759 5759 5759 5759 5759 5759 5759 5759 5759 5759 5758 5757 5756 5756 5755 5755 5754 5754 5754 5754
5760 5758 5755 5754 5753 5753 5753 5753 5753 5753 5753 5754 5754 5755 5755 5755 5755 5756 5756 5755 5755 5755 5755 5755 5755 5755 5755 5755 5755 5755 5756 5755 5755 5754 5753 5752 5751 5751 5751 5750 5750 5750 5750
5757 5755 5752 5751 5750 5750 5749 5749 5749 5749 5749 5750 5750 5750 5751 5750 5750 5751 5751 5751 5751 5751 5751 5751 5751 5750 5750 5751 5751 5752 5752 5752 5752 5751 5749 5748 5747 5747 5746 5746 5746 5746 5746
5756 5753 5750 5748 5747 5746 5746 5745 5745 5745 5745 5746 5746 5746 5747 5746 5746 5746 5746 5746 5746 5746 5746 5746 5746 5746 5746 5746 5747 5747 5748 5747 5747 5747 5745 5744 5743 5742 5742 5741 5741 5740 5741
5752 5751 5749 5747 5746 5744 5743 5742 5742 5741 5741 5742 5742 5742 5743 5742 5742 5741 5741 5741 5741 5742 5742 5742 5742 5742 5742 5743 5743 5743 5743 5742 5742 5741 5740 5739 5738 5737 5737 5736 5735 5735 5736
5746 5746 5747 5746 5744 5743 5741 5740 5739 5739 5738 5738 5738 5738 5738 5739 5738 5738 5737 5737 5737 5738 5738 5738 5738 5738 5738 5739 5739 5739 5738 5737 5736 5735 5734 5734 5733 5732 5731 5731 5730 5730 5730
5739 5741 5743 5743 5742 5741 5740 5738 5737 5736 5735 5735 5735 5735 5735 5735 5735 5734 5734 5734 5734 5734 5735 5735 5735 5735 5735 5735 5734 5734 5733 5732 5731 5729 5728 5728 5728 5727 5726 5726 5725 5725 5725
5736 5737 5739 5739 5739 5738 5736 5735 5734 5733 5732 5732 5732 5731 5731 5731 5730 5731 5730 5729 5729 5730 5731 5731 5731 5731 5731 5730 5729 5728 5727 5726 5725 5724 5723 5723 5723 5723 5722 5721 5720 5719 5720
5733 5733 5735 5736 5735 5734 5732 5731 5730 5729 5728 5728 5727 5726 5727 5727 5727 5726 5726 5726 5726 5726 5726 5727 5726 5726 5726 5725 5724 5723 5722 5721 5719 5718 5717 5717 5717 5717 5716 5716 5715 5714 5714
5730 5730 5731 5732 5731 5730 5728 5727 5726 5724 5723 5723 5722 5723 5723 5722 5722 5722 5721 5721 5721 5721 5721 5721 5721 5719 5719 5719 5719 5717 5717 5715 5713 5712 5711 5711 5711 5711 5710 5710 5709 5709 5708
5727 5727 5727 5727 5727 5725 5723 5722 5721 5719 5718 5717 5717 5718 5718 5717 5717 5716 5716 5715 5715 5716 5716 5715 5715 5714 5713 5712 5712 5711 5710 5710 5709 5708 5707 5706 5705 5704 5704 5704 5703 5702 5702
5725 5725 5724 5723 5723 5720 5718 5716 5715 5714 5713 5712 5712 5712 5712 5712 5712 5711 5711 5709 5709 5710 5710 5709 5708 5708 5707 5706 5704 5704 5704 5704 5704 5703 5702 5700 5699 5698 5697 5697 5696 5696 5695
5723 5721 5720 5719 5717 5715 5713 5711 5709 5708 5707 5706 5706 5707 5707 5707 5706 5705 5704 5704 5704 5704 5703 5703 5701 5699 5698 5697 5697 5697 5697 5697 5697 5697 5696 5694 5692 5691 5690 5690 5690 5689 5688
5720 5718 5715 5714 5711 5709 5707 5706 5704 5703 5701 5701 5700 5700 5700 5700 5700 5699 5698 5698 5697 5697 5696 5696 5694 5693 5691 5690 5690 5690 5690 5690 5689 5689 5688 5687 5686 5685 5684 5683 5683 5682 5681
5716 5714 5711 5709 5707 5705 5702 5700 5698 5696 5695 5695 5694 5693 5693 5693 5693 5693 5692 5691 5691 5689 5689 5688 5687 5687 5686 5685 5686 5684 5684 5683 5682 5681 5680 5680 5679 5678 5677 5676 5675 5674 5673
5711 5709 5706 5703 5702 5699 5696 5693 5690 5688 5688 5688 5688 5687 5687 5687 5687 5687 5686 5685 5684 5682 5681 5682 5681 5680 5679 5680 5678 5675 5676 5677 5675 5674 5674 5673 5672 5671 5670 5669 5668 5666 5665
5706 5704 5702 5700 5697 5695 5691 5689 5686 5684 5682 5682 5682 5681 5681 5680 5680 5681 5680 5679 5678 5676 5675 5675 5674 5672 5672 5674 5670 5667 5663 5663 5666 5668 5667 5665 5664 5664 5663 5662 5660 5659 5657
5702 5701 5699 5696 5694 5691 5688 5685 5682 5679 5677 5675 5674 5674 5675 5675 5674 5675 5674 5673 5672 5670 5669 5668 5668 5666 5664 5666 5667 5662 5657 5653 5655 5658 5659 5658 5657 5656 5656 5654 5652 5651 5650
5700 5699 5696 5694 5691 5688 5685 5680 5676 5671 5668 5668 5668 5668 5669 5669 5669 5668 5668 5667 5666 5665 5663 5662 5662 5661 5659 5657 5658 5659 5658 5656 5650 5647 5649 5651 5651 5649 5648 5647 5645 5644 5643
5698 5695 5692 5689 5686 5684 5680 5676 5672 5668 5665 5664 5664 5663 5662 5662 5662 5662 5662 5661 5660 5659 5658 5657 5656 5655 5654 5652 5651 5651 5651 5651 5649 5643 5639 5640 5641 5642 5641 5641 5639 5638 5636
5694 5691 5687 5684 5681 5678 5675 5671 5667 5662 5660 5658 5656 5655 5655 5655 5655 5656 5656 5655 5654 5653 5652 5651 5650 5649 5648 5647 5646 5645 5643 5642 5641 5639 5635 5633 5632 5633 5635 5634 5633 5631 5630